Time,TemperatureF,DewpointF,PressureIn,WindDirection,WindDirectionDegrees,WindSpeedMPH,WindSpeedGustMPH,Humidity,HourlyPrecipIn,Conditions,Clouds,dailyrainin,SoftwareType,DateUTC
2013-09-09 00:05:00,62.6,53.1,30.00,SW,224,5.0,6.0,71,0.00,,,0.00,Wunderground v.1.15,2013-09-09 07:05:00,
2013-09-09 00:11:00,62.6,53.1,30.00,SW,225,4.0,4.0,71,0.00,,,0.00,Wunderground v.1.15,2013-09-09 07:11:00,
2013-09-09 00:17:00,62.5,53.0,30.00,SW,225,3.0,5.0,71,0.00,,,0.00,Wunderground v.1.15,2013-09-09 07:17:00,
2013-09-09 00:22:00,62.5,53.0,30.00,SW,225,2.0,4.0,71,0.00,,,0.00,Wunderground v.1.15,2013-09-09 07:22:00,
2013-09-09 00:28:00,62.3,53.2,30.00,SW,225,2.0,4.0,72,0.00,,,0.00,Wunderground v.1.15,2013-09-09 07:28:00,
2013-09-09 00:34:00,62.0,52.9,30.00,SW,225,5.0,5.0,72,0.00,,,0.00,Wunderground v.1.15,2013-09-09 07:34:00,
2013-09-09 00:40:00,62.0,52.9,30.00,SW,224,5.0,5.0,72,0.00,,,0.00,Wunderground v.1.15,2013-09-09 07:40:00,
2013-09-09 00:45:00,61.9,53.1,30.01,SW,224,4.0,5.0,73,0.00,,,0.00,Wunderground v.1.15,2013-09-09 07:45:00,
2013-09-09 00:51:00,62.0,53.2,30.01,SW,224,4.0,4.0,73,0.00,,,0.00,Wunderground v.1.15,2013-09-09 07:51:00,
2013-09-09 00:56:00,62.3,53.2,30.01,SW,224,4.0,4.0,72,0.00,,,0.00,Wunderground v.1.15,2013-09-09 07:56:00,
2013-09-09 01:02:00,62.4,53.3,30.01,SW,224,2.0,3.0,72,0.00,,,0.00,Wunderground v.1.15,2013-09-09 08:02:00,
2013-09-09 01:08:00,62.2,53.1,30.01,SW,224,0.0,3.0,72,0.00,,,0.00,Wunderground v.1.15,2013-09-09 08:08:00,
2013-09-09 01:13:00,62.0,53.2,30.01,SW,224,0.0,2.0,73,0.00,,,0.00,Wunderground v.1.15,2013-09-09 08:13:00,
2013-09-09 01:19:00,62.0,53.2,30.00,SW,224,0.0,2.0,73,0.00,,,0.00,Wunderground v.1.15,2013-09-09 08:19:00,
2013-09-09 01:25:00,62.0,53.2,30.00,SW,224,2.0,2.0,73,0.00,,,0.00,Wunderground v.1.15,2013-09-09 08:25:00,
2013-09-09 01:31:00,62.2,53.1,30.00,SW,224,3.0,3.0,72,0.00,,,0.00,Wunderground v.1.15,2013-09-09 08:31:00,
2013-09-09 01:36:00,62.3,53.2,30.00,SW,224,2.0,3.0,72,0.00,,,0.00,Wunderground v.1.15,2013-09-09 08:36:00,
2013-09-09 01:42:00,62.3,53.2,30.00,SW,224,0.0,2.0,72,0.00,,,0.00,Wunderground v.1.15,2013-09-09 08:42:00,
2013-09-09 01:48:00,62.4,53.3,30.00,SW,224,1.0,2.0,72,0.00,,,0.00,Wunderground v.1.15,2013-09-09 08:48:00,
2013-09-09 01:53:00,62.4,53.3,30.00,SW,224,1.0,1.0,72,0.00,,,0.00,Wunderground v.1.15,2013-09-09 08:53:00,
2013-09-09 01:59:00,62.1,53.0,30.00,SW,224,4.0,4.0,72,0.00,,,0.00,Wunderground v.1.15,2013-09-09 08:59:00,
2013-09-09 02:04:00,61.8,53.1,30.00,SSW,192,2.0,5.0,73,0.00,,,0.00,Wunderground v.1.15,2013-09-09 09:04:00,
2013-09-09 02:09:00,61.3,52.9,30.00,SSW,192,0.0,5.0,74,0.00,,,0.00,Wunderground v.1.15,2013-09-09 09:09:00,
2013-09-09 02:14:00,61.0,52.7,30.00,SSW,192,0.0,3.0,74,0.00,,,0.00,Wunderground v.1.15,2013-09-09 09:14:00,
2013-09-09 02:19:00,60.9,52.9,30.00,SSW,192,0.0,3.0,75,0.00,,,0.00,Wunderground v.1.15,2013-09-09 09:19:00,
2013-09-09 02:24:00,60.8,52.8,30.00,SSW,192,1.0,4.0,75,0.00,,,0.00,Wunderground v.1.15,2013-09-09 09:24:00,
2013-09-09 02:29:00,61.1,52.7,30.00,SSW,192,3.0,5.0,74,0.00,,,0.00,Wunderground v.1.15,2013-09-09 09:29:00,
2013-09-09 02:34:00,61.1,52.7,29.99,South,191,4.0,5.0,74,0.00,,,0.00,Wunderground v.1.15,2013-09-09 09:34:00,
2013-09-09 02:39:00,60.9,52.6,29.99,South,190,4.0,6.0,74,0.00,,,0.00,Wunderground v.1.15,2013-09-09 09:39:00,
2013-09-09 02:44:00,60.7,52.7,29.99,SSE,163,5.0,5.0,75,0.00,,,0.00,Wunderground v.1.15,2013-09-09 09:44:00,
2013-09-09 02:49:00,60.6,52.6,29.99,SSE,163,5.0,5.0,75,0.00,,,0.00,Wunderground v.1.15,2013-09-09 09:49:00,
2013-09-09 02:55:00,60.5,52.5,29.99,South,181,8.0,9.0,75,0.00,,,0.00,Wunderground v.1.15,2013-09-09 09:55:00,
2013-09-09 03:00:00,60.6,52.6,29.99,South,185,8.0,8.0,75,0.00,,,0.00,Wunderground v.1.15,2013-09-09 10:00:00,
2013-09-09 03:05:00,60.5,52.5,29.99,SSW,192,7.0,8.0,75,0.00,,,0.00,Wunderground v.1.15,2013-09-09 10:05:00,
2013-09-09 03:10:00,60.6,52.6,29.98,South,189,7.0,8.0,75,0.00,,,0.00,Wunderground v.1.15,2013-09-09 10:10:00,
2013-09-09 03:15:00,60.6,52.3,29.99,South,182,7.0,9.0,74,0.00,,,0.00,Wunderground v.1.15,2013-09-09 10:15:00,
2013-09-09 03:20:00,60.6,52.3,29.98,South,182,5.0,7.0,74,0.00,,,0.00,Wunderground v.1.15,2013-09-09 10:20:00,
2013-09-09 03:25:00,60.5,52.2,29.99,South,182,6.0,8.0,74,0.00,,,0.00,Wunderground v.1.15,2013-09-09 10:25:00,
2013-09-09 03:30:00,60.4,52.1,29.99,South,182,4.0,6.0,74,0.00,,,0.00,Wunderground v.1.15,2013-09-09 10:30:00,
2013-09-09 03:35:00,60.1,52.1,29.99,South,182,5.0,6.0,75,0.00,,,0.00,Wunderground v.1.15,2013-09-09 10:35:00,
2013-09-09 03:40:00,60.0,52.1,29.99,South,182,4.0,5.0,75,0.00,,,0.00,Wunderground v.1.15,2013-09-09 10:40:00,
2013-09-09 03:46:00,59.8,52.2,29.99,South,182,4.0,6.0,76,0.00,,,0.00,Wunderground v.1.15,2013-09-09 10:46:00,
2013-09-09 03:50:00,59.8,52.2,29.99,South,182,4.0,5.0,76,0.00,,,0.00,Wunderground v.1.15,2013-09-09 10:50:00,
2013-09-09 03:56:00,59.7,52.1,29.99,South,182,5.0,7.0,76,0.00,,,0.00,Wunderground v.1.15,2013-09-09 10:56:00,
2013-09-09 04:01:00,59.6,52.0,29.99,South,182,6.0,7.0,76,0.00,,,0.00,Wunderground v.1.15,2013-09-09 11:01:00,
2013-09-09 04:06:00,59.5,51.9,29.99,South,171,6.0,7.0,76,0.00,,,0.00,Wunderground v.1.15,2013-09-09 11:06:00,
2013-09-09 04:11:00,59.4,51.8,29.99,South,175,5.0,7.0,76,0.00,,,0.00,Wunderground v.1.15,2013-09-09 11:11:00,
2013-09-09 04:16:00,59.3,52.1,29.99,South,177,4.0,7.0,77,0.00,,,0.00,Wunderground v.1.15,2013-09-09 11:16:00,
2013-09-09 04:21:00,59.0,51.8,29.99,South,176,5.0,6.0,77,0.00,,,0.00,Wunderground v.1.15,2013-09-09 11:21:00,
2013-09-09 04:26:00,58.9,51.7,29.99,South,175,5.0,8.0,77,0.00,,,0.00,Wunderground v.1.15,2013-09-09 11:26:00,
2013-09-09 04:31:00,59.0,51.8,29.99,South,174,5.0,8.0,77,0.00,,,0.00,Wunderground v.1.15,2013-09-09 11:31:00,
2013-09-09 04:36:00,59.0,51.8,29.99,South,173,4.0,8.0,77,0.00,,,0.00,Wunderground v.1.15,2013-09-09 11:36:00,
2013-09-09 04:41:00,58.9,51.7,29.99,South,173,5.0,5.0,77,0.00,,,0.00,Wunderground v.1.15,2013-09-09 11:41:00,
2013-09-09 04:46:00,58.7,51.5,29.99,South,173,5.0,7.0,77,0.00,,,0.00,Wunderground v.1.15,2013-09-09 11:46:00,
2013-09-09 04:51:00,58.6,51.8,29.99,South,173,5.0,5.0,78,0.00,,,0.00,Wunderground v.1.15,2013-09-09 11:51:00,
2013-09-09 04:56:00,58.6,51.8,29.99,South,173,5.0,7.0,78,0.00,,,0.00,Wunderground v.1.15,2013-09-09 11:56:00,
2013-09-09 05:01:00,58.7,51.5,29.99,South,173,3.0,6.0,77,0.00,,,0.00,Wunderground v.1.15,2013-09-09 12:01:00,
2013-09-09 05:06:00,58.8,51.6,29.99,South,173,5.0,6.0,77,0.00,,,0.00,Wunderground v.1.15,2013-09-09 12:06:00,
2013-09-09 05:11:00,58.7,51.5,30.00,South,173,4.0,5.0,77,0.00,,,0.00,Wunderground v.1.15,2013-09-09 12:11:00,
2013-09-09 05:16:00,58.6,51.4,30.00,South,173,5.0,5.0,77,0.00,,,0.00,Wunderground v.1.15,2013-09-09 12:16:00,
2013-09-09 05:21:00,58.5,51.3,30.00,South,173,4.0,6.0,77,0.00,,,0.00,Wunderground v.1.15,2013-09-09 12:21:00,
2013-09-09 05:26:00,58.5,51.3,30.00,South,173,5.0,6.0,77,0.00,,,0.00,Wunderground v.1.15,2013-09-09 12:26:00,
2013-09-09 05:31:00,58.4,51.2,30.00,South,173,4.0,5.0,77,0.00,,,0.00,Wunderground v.1.15,2013-09-09 12:31:00,
2013-09-09 05:36:00,58.4,51.2,30.00,South,173,2.0,6.0,77,0.00,,,0.00,Wunderground v.1.15,2013-09-09 12:36:00,
2013-09-09 05:41:00,58.2,51.0,30.00,South,173,3.0,4.0,77,0.00,,,0.00,Wunderground v.1.15,2013-09-09 12:41:00,
2013-09-09 05:46:00,58.0,51.2,30.00,South,173,3.0,4.0,78,0.00,,,0.00,Wunderground v.1.15,2013-09-09 12:46:00,
2013-09-09 05:51:00,57.7,51.2,30.00,South,173,4.0,4.0,79,0.00,,,0.00,Wunderground v.1.15,2013-09-09 12:51:00,
2013-09-09 05:56:00,57.7,51.2,30.00,South,173,3.0,5.0,79,0.00,,,0.00,Wunderground v.1.15,2013-09-09 12:56:00,
2013-09-09 06:01:00,57.7,50.9,30.00,South,173,3.0,3.0,78,0.00,,,0.00,Wunderground v.1.15,2013-09-09 13:01:00,
2013-09-09 06:06:00,57.7,50.9,30.00,South,173,3.0,4.0,78,0.00,,,0.00,Wunderground v.1.15,2013-09-09 13:06:00,
2013-09-09 06:11:00,57.7,50.9,30.00,South,173,4.0,4.0,78,0.00,,,0.00,Wunderground v.1.15,2013-09-09 13:11:00,
2013-09-09 06:16:00,57.6,50.8,30.00,South,173,3.0,4.0,78,0.00,,,0.00,Wunderground v.1.15,2013-09-09 13:16:00,
2013-09-09 06:21:00,57.8,51.0,30.00,South,173,4.0,5.0,78,0.00,,,0.00,Wunderground v.1.15,2013-09-09 13:21:00,
2013-09-09 06:26:00,57.8,51.0,30.01,South,173,4.0,5.0,78,0.00,,,0.00,Wunderground v.1.15,2013-09-09 13:26:00,
2013-09-09 06:31:00,57.9,50.7,30.01,South,173,5.0,5.0,77,0.00,,,0.00,Wunderground v.1.15,2013-09-09 13:31:00,
2013-09-09 06:36:00,58.0,50.8,30.01,South,173,2.0,5.0,77,0.00,,,0.00,Wunderground v.1.15,2013-09-09 13:36:00,
2013-09-09 06:41:00,57.8,50.6,30.01,South,173,5.0,5.0,77,0.00,,,0.00,Wunderground v.1.15,2013-09-09 13:41:00,
2013-09-09 06:46:00,57.6,50.8,30.01,South,173,2.0,5.0,78,0.00,,,0.00,Wunderground v.1.15,2013-09-09 13:46:00,
2013-09-09 06:52:00,57.5,50.7,30.01,South,173,0.0,2.0,78,0.00,,,0.00,Wunderground v.1.15,2013-09-09 13:52:00,
2013-09-09 06:57:00,57.4,50.9,30.02,South,173,0.0,2.0,79,0.00,,,0.00,Wunderground v.1.15,2013-09-09 13:57:00,
2013-09-09 07:02:00,57.7,51.2,30.02,South,173,0.0,0.0,79,0.00,,,0.00,Wunderground v.1.15,2013-09-09 14:02:00,
2013-09-09 07:07:00,57.8,51.3,30.02,South,173,1.0,1.0,79,0.00,,,0.00,Wunderground v.1.15,2013-09-09 14:07:00,
2013-09-09 07:12:00,57.8,51.3,30.02,South,173,0.0,1.0,79,0.00,,,0.00,Wunderground v.1.15,2013-09-09 14:12:00,
2013-09-09 07:17:00,58.1,52.0,30.02,South,173,1.0,2.0,80,0.00,,,0.00,Wunderground v.1.15,2013-09-09 14:17:00,
2013-09-09 07:22:00,58.2,53.1,30.02,South,173,2.0,3.0,83,0.00,,,0.00,Wunderground v.1.15,2013-09-09 14:22:00,
2013-09-09 07:27:00,58.0,52.9,30.02,ENE,70,3.0,3.0,83,0.00,,,0.00,Wunderground v.1.15,2013-09-09 14:27:00,
2013-09-09 07:32:00,57.7,52.9,30.02,ENE,67,1.0,4.0,84,0.00,,,0.00,Wunderground v.1.15,2013-09-09 14:32:00,
2013-09-09 07:37:00,57.5,53.0,30.02,ENE,67,1.0,4.0,85,0.00,,,0.00,Wunderground v.1.15,2013-09-09 14:37:00,
2013-09-09 07:42:00,57.5,53.3,30.03,ENE,60,3.0,4.0,86,0.00,,,0.00,Wunderground v.1.15,2013-09-09 14:42:00,
2013-09-09 07:47:00,57.4,53.2,30.03,ENE,59,3.0,5.0,86,0.00,,,0.00,Wunderground v.1.15,2013-09-09 14:47:00,
2013-09-09 07:52:00,57.4,53.2,30.03,ENE,59,2.0,4.0,86,0.00,,,0.00,Wunderground v.1.15,2013-09-09 14:52:00,
2013-09-09 07:57:00,57.6,53.4,30.02,ENE,59,0.0,4.0,86,0.00,,,0.00,Wunderground v.1.15,2013-09-09 14:57:00,
2013-09-09 08:02:00,58.3,54.1,30.03,ENE,59,2.0,2.0,86,0.00,,,0.00,Wunderground v.1.15,2013-09-09 15:02:00,
2013-09-09 08:07:00,58.6,53.5,30.03,ENE,59,1.0,4.0,83,0.00,,,0.00,Wunderground v.1.15,2013-09-09 15:07:00,
2013-09-09 08:12:00,58.7,53.9,30.03,ENE,59,2.0,3.0,84,0.00,,,0.00,Wunderground v.1.15,2013-09-09 15:12:00,
2013-09-09 08:17:00,58.9,53.7,30.03,ENE,59,2.0,4.0,83,0.00,,,0.00,Wunderground v.1.15,2013-09-09 15:17:00,
2013-09-09 08:22:00,59.1,53.6,30.03,ENE,59,1.0,4.0,82,0.00,,,0.00,Wunderground v.1.15,2013-09-09 15:22:00,
2013-09-09 08:27:00,59.4,53.6,30.03,ENE,59,1.0,4.0,81,0.00,,,0.00,Wunderground v.1.15,2013-09-09 15:27:00,
2013-09-09 08:32:00,59.8,54.3,30.03,ENE,59,1.0,2.0,82,0.00,,,0.00,Wunderground v.1.15,2013-09-09 15:32:00,
2013-09-09 08:37:00,60.3,54.1,30.03,ENE,59,2.0,2.0,80,0.00,,,0.00,Wunderground v.1.15,2013-09-09 15:37:00,
2013-09-09 08:42:00,60.5,54.3,30.03,NE,55,3.0,5.0,80,0.00,,,0.00,Wunderground v.1.15,2013-09-09 15:42:00,
2013-09-09 08:47:00,60.6,54.4,30.03,NE,45,3.0,5.0,80,0.00,,,0.00,Wunderground v.1.15,2013-09-09 15:47:00,
2013-09-09 08:52:00,60.6,54.4,30.03,NE,40,3.0,4.0,80,0.00,,,0.00,Wunderground v.1.15,2013-09-09 15:52:00,
2013-09-09 08:57:00,60.7,54.1,30.03,NNE,32,2.0,5.0,79,0.00,,,0.00,Wunderground v.1.15,2013-09-09 15:57:00,
2013-09-09 09:02:00,61.0,54.4,30.03,NNE,32,2.0,3.0,79,0.00,,,0.00,Wunderground v.1.15,2013-09-09 16:02:00,
2013-09-09 09:07:00,61.5,54.6,30.03,NNE,32,1.0,3.0,78,0.00,,,0.00,Wunderground v.1.15,2013-09-09 16:07:00,
2013-09-09 09:12:00,61.8,54.2,30.03,NNE,32,2.0,3.0,76,0.00,,,0.00,Wunderground v.1.15,2013-09-09 16:12:00,
2013-09-09 09:17:00,61.7,54.8,30.03,NNE,30,4.0,5.0,78,0.00,,,0.00,Wunderground v.1.15,2013-09-09 16:17:00,
2013-09-09 09:22:00,61.6,54.3,30.03,NNE,30,3.0,5.0,77,0.00,,,0.00,Wunderground v.1.15,2013-09-09 16:22:00,
2013-09-09 09:27:00,61.9,54.2,30.03,NE,52,2.0,6.0,76,0.00,,,0.00,Wunderground v.1.15,2013-09-09 16:27:00,
2013-09-09 09:32:00,62.2,54.5,30.03,NNE,28,1.0,4.0,76,0.00,,,0.00,Wunderground v.1.15,2013-09-09 16:32:00,
2013-09-09 09:37:00,62.9,55.2,30.04,NNE,28,3.0,4.0,76,0.00,,,0.00,Wunderground v.1.15,2013-09-09 16:37:00,
2013-09-09 09:42:00,63.1,55.0,30.03,NNE,32,0.0,4.0,75,0.00,,,0.00,Wunderground v.1.15,2013-09-09 16:42:00,
2013-09-09 09:47:00,63.5,54.7,30.03,NNE,32,0.0,4.0,73,0.00,,,0.00,Wunderground v.1.15,2013-09-09 16:47:00,
2013-09-09 09:52:00,64.0,55.2,30.03,NNE,32,0.0,1.0,73,0.00,,,0.00,Wunderground v.1.15,2013-09-09 16:52:00,
2013-09-09 09:57:00,64.9,55.3,30.03,NNE,32,0.0,2.0,71,0.00,,,0.00,Wunderground v.1.15,2013-09-09 16:57:00,
2013-09-09 10:02:00,65.2,55.2,30.03,NNE,32,1.0,3.0,70,0.00,,,0.00,Wunderground v.1.15,2013-09-09 17:02:00,
2013-09-09 10:07:00,65.1,55.1,30.03,NNE,32,2.0,3.0,70,0.00,,,0.00,Wunderground v.1.15,2013-09-09 17:07:00,
2013-09-09 10:12:00,65.5,53.8,30.03,SSE,158,0.0,6.0,66,0.00,,,0.00,Wunderground v.1.15,2013-09-09 17:12:00,
2013-09-09 10:18:00,66.0,54.3,30.03,SSE,154,3.0,6.0,66,0.00,,,0.00,Wunderground v.1.15,2013-09-09 17:18:00,
2013-09-09 10:23:00,66.6,54.9,30.03,South,179,4.0,7.0,66,0.00,,,0.00,Wunderground v.1.15,2013-09-09 17:23:00,
2013-09-09 10:29:00,66.7,55.0,30.03,SSW,201,4.0,7.0,66,0.00,,,0.00,Wunderground v.1.15,2013-09-09 17:29:00,
2013-09-09 10:34:00,66.7,54.6,30.03,SSW,201,0.0,7.0,65,0.00,,,0.00,Wunderground v.1.15,2013-09-09 17:34:00,
2013-09-09 10:39:00,66.9,55.2,30.03,SSW,204,3.0,7.0,66,0.00,,,0.00,Wunderground v.1.15,2013-09-09 17:39:00,
2013-09-09 10:44:00,67.3,55.1,30.03,SSW,204,0.0,4.0,65,0.00,,,0.00,Wunderground v.1.15,2013-09-09 17:44:00,
2013-09-09 10:49:00,68.1,55.0,30.03,SE,140,1.0,6.0,63,0.00,,,0.00,Wunderground v.1.15,2013-09-09 17:49:00,
2013-09-09 10:54:00,67.8,55.2,30.03,ESE,112,7.0,8.0,64,0.00,,,0.00,Wunderground v.1.15,2013-09-09 17:54:00,
2013-09-09 10:59:00,67.7,55.1,30.03,South,190,5.0,8.0,64,0.00,,,0.00,Wunderground v.1.15,2013-09-09 17:59:00,
2013-09-09 11:04:00,67.7,55.1,30.03,SSE,148,2.0,7.0,64,0.00,,,0.00,Wunderground v.1.15,2013-09-09 18:04:00,
2013-09-09 11:09:00,67.9,55.7,30.03,SSE,167,1.0,7.0,65,0.00,,,0.00,Wunderground v.1.15,2013-09-09 18:09:00,
2013-09-09 11:14:00,68.3,56.1,30.03,SSE,167,4.0,4.0,65,0.00,,,0.00,Wunderground v.1.15,2013-09-09 18:14:00,
2013-09-09 11:19:00,68.7,55.6,30.03,South,184,1.0,7.0,63,0.00,,,0.00,Wunderground v.1.15,2013-09-09 18:19:00,
2013-09-09 11:24:00,68.7,55.6,30.03,SSW,198,0.0,8.0,63,0.00,,,0.00,Wunderground v.1.15,2013-09-09 18:24:00,
2013-09-09 11:29:00,69.1,55.5,30.03,South,186,6.0,8.0,62,0.00,,,0.00,Wunderground v.1.15,2013-09-09 18:29:00,
2013-09-09 11:34:00,69.1,55.5,30.03,SSE,156,6.0,7.0,62,0.00,,,0.00,Wunderground v.1.15,2013-09-09 18:34:00,
2013-09-09 11:39:00,69.5,56.3,30.03,South,171,3.0,7.0,63,0.00,,,0.00,Wunderground v.1.15,2013-09-09 18:39:00,
2013-09-09 11:44:00,70.0,55.9,30.02,South,171,2.0,3.0,61,0.00,,,0.00,Wunderground v.1.15,2013-09-09 18:44:00,
2013-09-09 11:49:00,70.2,55.2,30.02,South,182,3.0,10.0,59,0.00,,,0.00,Wunderground v.1.15,2013-09-09 18:49:00,
2013-09-09 11:54:00,70.3,56.2,30.02,SSW,205,6.0,9.0,61,0.00,,,0.00,Wunderground v.1.15,2013-09-09 18:54:00,
2013-09-09 11:59:00,70.7,57.0,30.02,SSW,211,5.0,9.0,62,0.00,,,0.00,Wunderground v.1.15,2013-09-09 18:59:00,
2013-09-09 12:05:00,71.3,55.8,30.02,SW,223,2.0,5.0,58,0.00,,,0.00,Wunderground v.1.15,2013-09-09 19:05:00,
2013-09-09 12:10:00,71.3,55.8,30.02,SSW,199,7.0,7.0,58,0.00,,,0.00,Wunderground v.1.15,2013-09-09 19:10:00,
2013-09-09 12:15:00,71.5,55.5,30.02,South,185,0.0,7.0,57,0.00,,,0.00,Wunderground v.1.15,2013-09-09 19:15:00,
2013-09-09 12:20:00,71.9,55.8,30.01,West,265,1.0,2.0,57,0.00,,,0.00,Wunderground v.1.15,2013-09-09 19:20:00,
2013-09-09 12:25:00,72.0,55.4,30.01,NNE,12,1.0,4.0,56,0.00,,,0.00,Wunderground v.1.15,2013-09-09 19:25:00,
2013-09-09 12:30:00,72.1,55.0,30.01,South,178,7.0,7.0,55,0.00,,,0.00,Wunderground v.1.15,2013-09-09 19:30:00,
2013-09-09 12:35:00,72.1,55.5,30.01,SE,132,0.0,7.0,56,0.00,,,0.00,Wunderground v.1.15,2013-09-09 19:35:00,
2013-09-09 12:40:00,72.4,55.3,30.00,SSE,153,2.0,4.0,55,0.00,,,0.00,Wunderground v.1.15,2013-09-09 19:40:00,
2013-09-09 12:45:00,72.8,56.2,30.00,SSW,202,5.0,5.0,56,0.00,,,0.00,Wunderground v.1.15,2013-09-09 19:45:00,
2013-09-09 12:50:00,73.2,56.1,30.00,ESE,103,4.0,4.0,55,0.00,,,0.00,Wunderground v.1.15,2013-09-09 19:50:00,
2013-09-09 12:55:00,73.6,55.9,30.00,ESE,107,0.0,7.0,54,0.00,,,0.00,Wunderground v.1.15,2013-09-09 19:55:00,
2013-09-09 13:00:00,74.2,55.4,30.00,ESE,105,4.0,4.0,52,0.00,,,0.00,Wunderground v.1.15,2013-09-09 20:00:00,
2013-09-09 13:05:00,73.9,56.2,30.00,ESE,111,7.0,8.0,54,0.00,,,0.00,Wunderground v.1.15,2013-09-09 20:05:00,
2013-09-09 13:10:00,73.5,55.8,30.00,ESE,117,2.0,4.0,54,0.00,,,0.00,Wunderground v.1.15,2013-09-09 20:10:00,
2013-09-09 13:15:00,73.7,56.5,30.00,South,186,1.0,5.0,55,0.00,,,0.00,Wunderground v.1.15,2013-09-09 20:15:00,
2013-09-09 13:20:00,74.2,56.0,30.00,SSE,155,4.0,7.0,53,0.00,,,0.00,Wunderground v.1.15,2013-09-09 20:20:00,
2013-09-09 13:25:00,74.4,56.2,29.99,SSE,159,1.0,7.0,53,0.00,,,0.00,Wunderground v.1.15,2013-09-09 20:25:00,
2013-09-09 13:30:00,74.8,56.0,29.99,SSE,159,1.0,3.0,52,0.00,,,0.00,Wunderground v.1.15,2013-09-09 20:30:00,
2013-09-09 13:35:00,75.1,55.7,29.99,SSE,153,4.0,4.0,51,0.00,,,0.00,Wunderground v.1.15,2013-09-09 20:35:00,
2013-09-09 13:40:00,74.8,55.5,29.99,SE,137,0.0,7.0,51,0.00,,,0.00,Wunderground v.1.15,2013-09-09 20:40:00,
2013-09-09 13:46:00,75.0,56.2,29.99,ESE,119,2.0,7.0,52,0.00,,,0.00,Wunderground v.1.15,2013-09-09 20:46:00,
2013-09-09 13:51:00,75.3,56.5,29.98,NE,38,0.0,2.0,52,0.00,,,0.00,Wunderground v.1.15,2013-09-09 20:51:00,
2013-09-09 13:56:00,76.4,55.8,29.98,SW,228,5.0,6.0,49,0.00,,,0.00,Wunderground v.1.15,2013-09-09 20:56:00,
2013-09-09 14:01:00,76.5,55.3,29.98,WSW,247,0.0,2.0,48,0.00,,,0.00,Wunderground v.1.15,2013-09-09 21:01:00,
2013-09-09 14:06:00,77.3,56.1,29.98,WSW,247,0.0,2.0,48,0.00,,,0.00,Wunderground v.1.15,2013-09-09 21:06:00,
2013-09-09 14:11:00,78.3,56.4,29.98,WNW,302,3.0,3.0,47,0.00,,,0.00,Wunderground v.1.15,2013-09-09 21:11:00,
2013-09-09 14:16:00,77.8,57.1,29.97,NW,319,0.0,7.0,49,0.00,,,0.00,Wunderground v.1.15,2013-09-09 21:16:00,
2013-09-09 14:21:00,77.9,56.0,29.97,NW,305,2.0,4.0,47,0.00,,,0.00,Wunderground v.1.15,2013-09-09 21:21:00,
2013-09-09 14:26:00,78.2,56.3,29.97,SW,232,0.0,6.0,47,0.00,,,0.00,Wunderground v.1.15,2013-09-09 21:26:00,
2013-09-09 14:31:00,77.8,56.5,29.97,NNW,327,1.0,6.0,48,0.00,,,0.00,Wunderground v.1.15,2013-09-09 21:31:00,
2013-09-09 14:36:00,77.3,56.1,29.97,NE,38,6.0,7.0,48,0.00,,,0.00,Wunderground v.1.15,2013-09-09 21:36:00,
2013-09-09 14:41:00,76.9,55.7,29.97,NNE,15,1.0,3.0,48,0.00,,,0.00,Wunderground v.1.15,2013-09-09 21:41:00,
2013-09-09 14:46:00,77.5,54.5,29.97,West,273,0.0,6.0,45,0.00,,,0.00,Wunderground v.1.15,2013-09-09 21:46:00,
2013-09-09 14:51:00,78.4,54.7,29.97,SW,231,4.0,5.0,44,0.00,,,0.00,Wunderground v.1.15,2013-09-09 21:51:00,
2013-09-09 14:56:00,78.5,54.8,29.96,West,271,1.0,6.0,44,0.00,,,0.00,Wunderground v.1.15,2013-09-09 21:56:00,
2013-09-09 15:01:00,78.7,54.3,29.96,WSW,239,2.0,4.0,43,0.00,,,0.00,Wunderground v.1.15,2013-09-09 22:01:00,
2013-09-09 15:06:00,79.4,56.2,29.96,WSW,239,1.0,4.0,45,0.00,,,0.00,Wunderground v.1.15,2013-09-09 22:06:00,
2013-09-09 15:11:00,79.9,54.8,29.95,NW,309,5.0,6.0,42,0.00,,,0.00,Wunderground v.1.15,2013-09-09 22:11:00,
2013-09-09 15:16:00,79.0,53.3,29.95,North,11,0.0,6.0,41,0.00,,,0.00,Wunderground v.1.15,2013-09-09 22:16:00,
2013-09-09 15:21:00,78.5,52.8,29.95,NNE,32,2.0,5.0,41,0.00,,,0.00,Wunderground v.1.15,2013-09-09 22:21:00,
2013-09-09 15:26:00,77.9,53.6,29.95,NNE,32,6.0,7.0,43,0.00,,,0.00,Wunderground v.1.15,2013-09-09 22:26:00,
2013-09-09 15:31:00,77.8,53.5,29.95,NE,46,0.0,3.0,43,0.00,,,0.00,Wunderground v.1.15,2013-09-09 22:31:00,
2013-09-09 15:36:00,78.5,53.5,29.95,WSW,242,3.0,4.0,42,0.00,,,0.00,Wunderground v.1.15,2013-09-09 22:36:00,
2013-09-09 15:41:00,79.3,54.2,29.95,SW,221,0.0,1.0,42,0.00,,,0.00,Wunderground v.1.15,2013-09-09 22:41:00,
2013-09-09 15:46:00,80.0,54.2,29.95,West,277,8.0,8.0,41,0.00,,,0.00,Wunderground v.1.15,2013-09-09 22:46:00,
2013-09-09 15:51:00,79.5,51.7,29.95,NW,309,3.0,6.0,38,0.00,,,0.00,Wunderground v.1.15,2013-09-09 22:51:00,
2013-09-09 15:56:00,79.2,51.4,29.95,NNW,347,0.0,6.0,38,0.00,,,0.00,Wunderground v.1.15,2013-09-09 22:56:00,
2013-09-09 16:01:00,79.6,53.1,29.95,SW,236,5.0,5.0,40,0.00,,,0.00,Wunderground v.1.15,2013-09-09 23:01:00,
2013-09-09 16:06:00,80.0,51.4,29.95,West,264,3.0,7.0,37,0.00,,,0.00,Wunderground v.1.15,2013-09-09 23:06:00,
2013-09-09 16:11:00,80.2,51.6,29.95,WNW,289,7.0,9.0,37,0.00,,,0.00,Wunderground v.1.15,2013-09-09 23:11:00,
2013-09-09 16:16:00,79.6,51.8,29.95,WNW,288,0.0,9.0,38,0.00,,,0.00,Wunderground v.1.15,2013-09-09 23:16:00,
2013-09-09 16:21:00,79.4,51.6,29.95,West,262,0.0,6.0,38,0.00,,,0.00,Wunderground v.1.15,2013-09-09 23:21:00,
2013-09-09 16:26:00,79.9,52.0,29.95,West,269,6.0,8.0,38,0.00,,,0.00,Wunderground v.1.15,2013-09-09 23:26:00,
2013-09-09 16:31:00,79.8,51.9,29.95,West,279,2.0,4.0,38,0.00,,,0.00,Wunderground v.1.15,2013-09-09 23:31:00,
2013-09-09 16:36:00,79.8,52.6,29.94,WSW,238,4.0,8.0,39,0.00,,,0.00,Wunderground v.1.15,2013-09-09 23:36:00,
2013-09-09 16:41:00,79.7,52.5,29.94,East,89,6.0,7.0,39,0.00,,,0.00,Wunderground v.1.15,2013-09-09 23:41:00,
2013-09-09 16:46:00,79.1,53.4,29.94,ENE,57,1.0,7.0,41,0.00,,,0.00,Wunderground v.1.15,2013-09-09 23:46:00,
2013-09-09 16:51:00,78.8,53.1,29.94,North,360,4.0,4.0,41,0.00,,,0.00,Wunderground v.1.15,2013-09-09 23:51:00,
2013-09-09 16:56:00,78.7,53.0,29.94,NNE,26,4.0,6.0,41,0.00,,,0.00,Wunderground v.1.15,2013-09-09 23:56:00,
2013-09-09 17:02:00,78.6,53.6,29.94,NE,34,3.0,5.0,42,0.00,,,0.00,Wunderground v.1.15,2013-09-10 00:02:00,
2013-09-09 17:07:00,78.9,53.9,29.94,ENE,65,3.0,5.0,42,0.00,,,0.00,Wunderground v.1.15,2013-09-10 00:07:00,
2013-09-09 17:12:00,78.8,53.1,29.94,East,94,3.0,3.0,41,0.00,,,0.00,Wunderground v.1.15,2013-09-10 00:12:00,
2013-09-09 17:17:00,78.9,53.2,29.94,East,94,0.0,3.0,41,0.00,,,0.00,Wunderground v.1.15,2013-09-10 00:17:00,
2013-09-09 17:22:00,78.7,53.0,29.94,NE,46,0.0,3.0,41,0.00,,,0.00,Wunderground v.1.15,2013-09-10 00:22:00,
2013-09-09 17:27:00,78.7,53.7,29.94,NE,51,3.0,5.0,42,0.00,,,0.00,Wunderground v.1.15,2013-09-10 00:27:00,
2013-09-09 17:32:00,78.5,52.8,29.94,NE,40,2.0,4.0,41,0.00,,,0.00,Wunderground v.1.15,2013-09-10 00:32:00,
2013-09-09 17:37:00,78.6,53.6,29.94,NE,40,3.0,4.0,42,0.00,,,0.00,Wunderground v.1.15,2013-09-10 00:37:00,
2013-09-09 17:42:00,78.5,53.5,29.94,ENE,63,3.0,5.0,42,0.00,,,0.00,Wunderground v.1.15,2013-09-10 00:42:00,
2013-09-09 17:47:00,78.4,53.4,29.94,ENE,63,4.0,5.0,42,0.00,,,0.00,Wunderground v.1.15,2013-09-10 00:47:00,
2013-09-09 17:52:00,78.3,53.3,29.93,NE,38,0.0,4.0,42,0.00,,,0.00,Wunderground v.1.15,2013-09-10 00:52:00,
2013-09-09 17:57:00,78.5,53.5,29.93,NE,38,0.0,4.0,42,0.00,,,0.00,Wunderground v.1.15,2013-09-10 00:57:00,
2013-09-09 18:02:00,78.7,54.3,29.93,NE,38,0.0,1.0,43,0.00,,,0.00,Wunderground v.1.15,2013-09-10 01:02:00,
2013-09-09 18:07:00,78.5,53.5,29.93,ENE,59,2.0,4.0,42,0.00,,,0.00,Wunderground v.1.15,2013-09-10 01:07:00,
2013-09-09 18:12:00,78.4,53.4,29.93,ENE,65,4.0,4.0,42,0.00,,,0.00,Wunderground v.1.15,2013-09-10 01:12:00,
2013-09-09 18:17:00,78.2,53.9,29.93,ENE,65,1.0,4.0,43,0.00,,,0.00,Wunderground v.1.15,2013-09-10 01:17:00,
2013-09-09 18:22:00,78.1,53.1,29.93,ENE,65,0.0,1.0,42,0.00,,,0.00,Wunderground v.1.15,2013-09-10 01:22:00,
2013-09-09 18:27:00,78.1,53.8,29.93,ENE,65,2.0,2.0,43,0.00,,,0.00,Wunderground v.1.15,2013-09-10 01:27:00,
2013-09-09 18:32:00,78.0,53.0,29.93,ENE,65,0.0,2.0,42,0.00,,,0.00,Wunderground v.1.15,2013-09-10 01:32:00,
2013-09-09 18:37:00,78.0,53.0,29.93,ENE,65,2.0,3.0,42,0.00,,,0.00,Wunderground v.1.15,2013-09-10 01:37:00,
2013-09-09 18:42:00,78.0,53.0,29.93,ENE,65,0.0,2.0,42,0.00,,,0.00,Wunderground v.1.15,2013-09-10 01:42:00,
2013-09-09 18:47:00,77.9,52.3,29.93,ENE,65,1.0,2.0,41,0.00,,,0.00,Wunderground v.1.15,2013-09-10 01:47:00,
2013-09-09 18:52:00,77.7,52.8,29.93,ENE,65,1.0,3.0,42,0.00,,,0.00,Wunderground v.1.15,2013-09-10 01:52:00,
2013-09-09 18:57:00,77.4,53.8,29.92,ENE,65,1.0,3.0,44,0.00,,,0.00,Wunderground v.1.15,2013-09-10 01:57:00,
2013-09-09 19:03:00,77.0,54.0,29.93,ENE,65,1.0,2.0,45,0.00,,,0.00,Wunderground v.1.15,2013-09-10 02:03:00,
2013-09-09 19:08:00,76.6,54.3,29.93,ENE,65,0.0,2.0,46,0.00,,,0.00,Wunderground v.1.15,2013-09-10 02:08:00,
2013-09-09 19:13:00,76.2,53.9,29.93,ENE,65,1.0,3.0,46,0.00,,,0.00,Wunderground v.1.15,2013-09-10 02:13:00,
2013-09-09 19:19:00,75.8,54.1,29.93,ENE,65,2.0,3.0,47,0.00,,,0.00,Wunderground v.1.15,2013-09-10 02:19:00,
2013-09-09 19:24:00,75.6,53.9,29.93,ENE,65,2.0,3.0,47,0.00,,,0.00,Wunderground v.1.15,2013-09-10 02:24:00,
2013-09-09 19:29:00,75.5,53.9,29.93,ENE,65,0.0,3.0,47,0.00,,,0.00,Wunderground v.1.15,2013-09-10 02:29:00,
2013-09-09 19:34:00,75.4,53.8,29.93,ENE,65,1.0,2.0,47,0.00,,,0.00,Wunderground v.1.15,2013-09-10 02:34:00,
2013-09-09 19:39:00,75.3,53.7,29.93,ENE,65,2.0,3.0,47,0.00,,,0.00,Wunderground v.1.15,2013-09-10 02:39:00,
2013-09-09 19:44:00,75.2,53.0,29.93,ENE,65,1.0,3.0,46,0.00,,,0.00,Wunderground v.1.15,2013-09-10 02:44:00,
2013-09-09 19:49:00,75.3,53.7,29.93,ENE,65,2.0,3.0,47,0.00,,,0.00,Wunderground v.1.15,2013-09-10 02:49:00,
2013-09-09 19:54:00,75.2,53.0,29.93,ENE,65,2.0,2.0,46,0.00,,,0.00,Wunderground v.1.15,2013-09-10 02:54:00,
2013-09-09 19:59:00,75.0,52.8,29.93,ENE,65,1.0,3.0,46,0.00,,,0.00,Wunderground v.1.15,2013-09-10 02:59:00,
2013-09-09 20:04:00,74.9,52.7,29.93,ENE,65,1.0,2.0,46,0.00,,,0.00,Wunderground v.1.15,2013-09-10 03:04:00,
2013-09-09 20:10:00,74.8,52.6,29.94,ENE,66,2.0,2.0,46,0.00,,,0.00,Wunderground v.1.15,2013-09-10 03:10:00,
2013-09-09 20:15:00,74.7,52.5,29.94,ENE,67,1.0,3.0,46,0.00,,,0.00,Wunderground v.1.15,2013-09-10 03:15:00,
2013-09-09 20:20:00,74.6,52.4,29.94,ENE,67,1.0,1.0,46,0.00,,,0.00,Wunderground v.1.15,2013-09-10 03:20:00,
2013-09-09 20:25:00,74.6,51.9,29.94,ENE,67,2.0,2.0,45,0.00,,,0.00,Wunderground v.1.15,2013-09-10 03:25:00,
2013-09-09 20:30:00,74.6,51.9,29.94,ENE,67,2.0,2.0,45,0.00,,,0.00,Wunderground v.1.15,2013-09-10 03:30:00,
2013-09-09 20:35:00,74.5,52.4,29.94,ENE,67,1.0,3.0,46,0.00,,,0.00,Wunderground v.1.15,2013-09-10 03:35:00,
2013-09-09 20:40:00,74.4,52.3,29.94,ENE,67,1.0,2.0,46,0.00,,,0.00,Wunderground v.1.15,2013-09-10 03:40:00,
2013-09-09 20:45:00,74.2,52.1,29.94,ENE,67,1.0,2.0,46,0.00,,,0.00,Wunderground v.1.15,2013-09-10 03:45:00,
2013-09-09 20:50:00,74.1,52.0,29.94,ENE,67,0.0,1.0,46,0.00,,,0.00,Wunderground v.1.15,2013-09-10 03:50:00,
2013-09-09 20:55:00,74.0,51.9,29.94,ENE,67,0.0,2.0,46,0.00,,,0.00,Wunderground v.1.15,2013-09-10 03:55:00,
2013-09-09 21:00:00,73.9,51.8,29.94,ENE,67,2.0,2.0,46,0.00,,,0.00,Wunderground v.1.15,2013-09-10 04:00:00,
2013-09-09 21:01:00,73.9,51.8,29.94,ENE,67,1.0,2.0,46,0.00,,,0.00,Wunderground v.1.15,2013-09-10 04:01:00,
2013-09-09 21:02:00,73.9,51.8,29.94,ENE,67,1.0,2.0,46,0.00,,,0.00,Wunderground v.1.15,2013-09-10 04:02:00,
2013-09-09 21:05:00,73.8,51.7,29.94,ENE,67,1.0,2.0,46,0.00,,,0.00,Wunderground v.1.15,2013-09-10 04:05:00,
2013-09-09 21:10:00,73.8,51.7,29.94,ENE,67,1.0,2.0,46,0.00,,,0.00,Wunderground v.1.15,2013-09-10 04:10:00,
2013-09-09 21:15:00,73.9,51.8,29.94,ENE,67,1.0,2.0,46,0.00,,,0.00,Wunderground v.1.15,2013-09-10 04:15:00,
2013-09-09 21:20:00,73.8,51.7,29.94,ENE,67,2.0,2.0,46,0.00,,,0.00,Wunderground v.1.15,2013-09-10 04:20:00,
2013-09-09 21:25:00,73.7,51.6,29.94,ENE,67,0.0,2.0,46,0.00,,,0.00,Wunderground v.1.15,2013-09-10 04:25:00,
2013-09-09 21:30:00,73.5,52.0,29.95,ENE,67,0.0,1.0,47,0.00,,,0.00,Wunderground v.1.15,2013-09-10 04:30:00,
2013-09-09 21:35:00,73.4,51.9,29.95,ENE,67,0.0,1.0,47,0.00,,,0.00,Wunderground v.1.15,2013-09-10 04:35:00,
2013-09-09 21:40:00,73.4,51.9,29.95,ENE,67,1.0,1.0,47,0.00,,,0.00,Wunderground v.1.15,2013-09-10 04:40:00,
2013-09-09 21:45:00,73.3,51.8,29.95,ENE,67,2.0,3.0,47,0.00,,,0.00,Wunderground v.1.15,2013-09-10 04:45:00,
2013-09-09 21:50:00,73.0,52.1,29.95,ENE,67,1.0,2.0,48,0.00,,,0.00,Wunderground v.1.15,2013-09-10 04:50:00,
2013-09-09 21:55:00,72.4,52.2,29.95,ENE,67,2.0,2.0,49,0.00,,,0.00,Wunderground v.1.15,2013-09-10 04:55:00,
2013-09-09 22:00:00,72.0,52.3,29.95,ENE,67,3.0,3.0,50,0.00,,,0.00,Wunderground v.1.15,2013-09-10 05:00:00,
2013-09-09 22:05:00,71.9,52.8,29.95,ENE,67,3.0,3.0,51,0.00,,,0.00,Wunderground v.1.15,2013-09-10 05:05:00,
2013-09-09 22:10:00,71.7,52.6,29.95,ESE,119,4.0,4.0,51,0.00,,,0.00,Wunderground v.1.15,2013-09-10 05:10:00,
2013-09-09 22:15:00,71.7,53.1,29.95,ESE,120,2.0,4.0,52,0.00,,,0.00,Wunderground v.1.15,2013-09-10 05:15:00,
2013-09-09 22:20:00,71.4,53.4,29.95,ESE,120,0.0,3.0,53,0.00,,,0.00,Wunderground v.1.15,2013-09-10 05:20:00,
2013-09-09 22:25:00,70.8,52.8,29.95,ESE,120,2.0,3.0,53,0.00,,,0.00,Wunderground v.1.15,2013-09-10 05:25:00,
2013-09-09 22:30:00,70.3,52.9,29.95,ESE,120,0.0,1.0,54,0.00,,,0.00,Wunderground v.1.15,2013-09-10 05:30:00,
2013-09-09 22:35:00,70.3,52.9,29.95,ESE,120,0.0,1.0,54,0.00,,,0.00,Wunderground v.1.15,2013-09-10 05:35:00,
2013-09-09 22:40:00,70.3,52.9,29.95,ESE,120,0.0,0.0,54,0.00,,,0.00,Wunderground v.1.15,2013-09-10 05:40:00,
2013-09-09 22:45:00,70.2,53.3,29.95,ESE,120,1.0,2.0,55,0.00,,,0.00,Wunderground v.1.15,2013-09-10 05:45:00,
2013-09-09 22:50:00,69.8,53.4,29.95,SSE,160,3.0,3.0,56,0.00,,,0.00,Wunderground v.1.15,2013-09-10 05:50:00,
2013-09-09 22:56:00,69.2,53.3,29.95,SSE,160,4.0,4.0,57,0.00,,,0.00,Wunderground v.1.15,2013-09-10 05:56:00,
2013-09-09 23:01:00,68.8,53.4,29.95,South,169,2.0,4.0,58,0.00,,,0.00,Wunderground v.1.15,2013-09-10 06:01:00,
2013-09-09 23:06:00,68.4,53.0,29.95,South,169,4.0,4.0,58,0.00,,,0.00,Wunderground v.1.15,2013-09-10 06:06:00,
2013-09-09 23:11:00,68.0,53.1,29.96,South,169,4.0,4.0,59,0.00,,,0.00,Wunderground v.1.15,2013-09-10 06:11:00,
2013-09-09 23:16:00,68.1,53.2,29.95,South,169,2.0,5.0,59,0.00,,,0.00,Wunderground v.1.15,2013-09-10 06:16:00,
2013-09-09 23:21:00,67.8,53.4,29.95,South,169,4.0,6.0,60,0.00,,,0.00,Wunderground v.1.15,2013-09-10 06:21:00,
2013-09-09 23:26:00,67.8,52.9,29.95,South,169,3.0,6.0,59,0.00,,,0.00,Wunderground v.1.15,2013-09-10 06:26:00,
2013-09-09 23:31:00,68.0,53.1,29.95,South,169,2.0,4.0,59,0.00,,,0.00,Wunderground v.1.15,2013-09-10 06:31:00,
2013-09-09 23:36:00,67.9,53.0,29.95,South,169,5.0,5.0,59,0.00,,,0.00,Wunderground v.1.15,2013-09-10 06:36:00,
2013-09-09 23:41:00,67.6,52.8,29.95,South,169,2.0,4.0,59,0.00,,,0.00,Wunderground v.1.15,2013-09-10 06:41:00,
2013-09-09 23:46:00,67.3,52.9,29.95,South,169,2.0,4.0,60,0.00,,,0.00,Wunderground v.1.15,2013-09-10 06:46:00,
2013-09-09 23:51:00,66.9,53.0,29.95,South,169,2.0,4.0,61,0.00,,,0.00,Wunderground v.1.15,2013-09-10 06:51:00,
2013-09-09 23:56:00,66.9,53.0,29.95,South,169,3.0,4.0,61,0.00,,,0.00,Wunderground v.1.15,2013-09-10 06:56:00,